Date,TemperatureHighF,TemperatureAvgF,TemperatureLowF,DewpointHighF,DewpointAvgF,DewpointLowF,HumidityHigh,HumidityAvg,HumidityLow,PressureMaxIn,PressureMinIn,WindSpeedMaxMPH,WindSpeedAvgMPH,GustSpeedMaxMPH,PrecipitationSumIn
2013-1-1,30.4,19.8,10.1,18.5,11.3,2.2,86,70,53,30.26,30.12,15,4,15,0.06
2013-1-2,37.1,23.2,9.2,24.5,15.4,3.0,86,72,56,30.21,30.07,10,3,10,0.07
2013-1-3,42.7,29.3,19.4,29.3,22.5,14.9,85,76,53,30.38,30.20,10,3,10,0.00
2013-1-4,43.9,30.0,17.6,30.1,22.0,13.3,86,73,56,30.34,30.16,12,3,12,0.01
2013-1-5,47.9,37.0,30.2,34.6,28.8,22.5,82,72,56,30.16,29.99,17,6,17,0.00
2013-1-6,47.5,34.1,20.7,26.2,21.6,14.9,79,62,38,30.34,30.15,11,4,11,0.00
2013-1-7,50.8,39.2,28.8,29.0,25.2,20.4,73,58,42,30.19,29.96,21,7,21,0.00
2013-1-8,56.5,43.1,34.6,35.6,30.9,26.1,79,63,45,30.15,29.89,19,7,19,0.00
2013-1-9,60.1,40.8,26.5,39.6,29.7,20.4,82,66,44,30.37,30.15,10,2,10,0.00
2013-1-10,45.2,42.6,39.2,43.4,38.5,30.4,94,86,62,30.27,29.69,14,5,14,0.34
2013-1-11,58.3,51.9,45.0,48.4,45.0,24.0,95,79,33,29.72,29.50,24,9,24,0.00
2013-1-12,49.0,28.1,19.8,34.5,17.6,10.4,81,65,45,30.06,29.72,20,7,20,0.00
2013-1-13,31.7,21.0,13.5,14.2,8.9,6.0,76,60,40,30.30,30.03,16,5,16,0.00
2013-1-14,38.2,22.7,9.7,17.2,9.8,1.7,76,59,39,30.44,30.30,12,1,12,0.00
2013-1-15,41.0,26.6,14.6,23.2,12.7,6.0,75,57,38,30.34,30.11,6,1,6,0.00
2013-1-16,54.0,34.8,19.1,33.4,22.4,9.5,75,61,43,30.16,29.97,11,4,11,0.00
2013-1-17,55.1,40.2,27.9,36.5,29.5,23.8,86,67,46,30.43,30.16,10,2,10,0.00
2013-1-18,61.0,45.1,32.0,34.3,30.6,25.7,78,59,35,30.32,29.96,31,10,31,0.00
2013-1-19,70.9,49.0,36.0,36.2,30.1,25.9,77,51,25,30.21,29.91,16,6,16,0.00
2013-1-20,42.1,30.4,21.4,27.6,14.5,7.4,72,52,35,30.36,30.21,16,5,16,0.00
2013-1-21,27.5,20.2,15.5,13.0,8.3,4.5,72,60,48,30.39,30.30,14,3,14,0.00
2013-1-22,38.5,23.8,14.8,15.0,9.2,4.7,66,55,38,30.32,30.18,12,4,12,0.00
2013-1-23,55.3,29.1,12.4,32.0,16.3,4.8,79,60,37,30.37,30.11,20,4,20,0.00
2013-1-24,29.2,22.0,11.7,14.9,7.7,3.0,72,55,37,30.41,30.10,17,7,17,0.00
2013-1-25,49.0,31.6,16.2,24.1,17.3,8.7,76,57,36,30.20,30.09,10,2,10,0.00
2013-1-26,59.2,41.3,25.9,30.3,24.9,18.8,84,56,28,30.21,30.00,15,4,15,0.00
2013-1-27,60.8,52.2,42.1,53.1,48.5,37.9,92,87,74,29.86,29.68,20,9,20,0.00
2013-1-28,75.1,60.7,47.3,60.6,52.2,43.6,89,75,49,29.80,29.59,22,8,22,0.00
2013-1-29,67.0,44.3,34.2,61.3,41.1,32.3,93,89,76,29.68,29.46,22,7,22,0.10
2013-1-30,34.2,26.3,16.0,32.3,21.5,11.4,93,82,68,29.93,29.50,23,8,23,0.01
2013-1-31,22.3,17.1,5.6,18.5,9.6,-0.5,89,73,53,30.41,29.89,22,5,22,0.00
2013-2-1,30.2,18.1,4.3,19.4,10.6,-0.6,84,73,61,30.41,30.08,14,4,14,0.01
2013-2-2,52.4,37.6,25.0,37.8,28.2,17.1,82,69,51,30.16,30.05,16,5,16,0.05
2013-2-3,52.9,40.9,27.7,29.9,26.6,19.5,84,59,36,30.24,29.78,16,6,16,0.00
2013-2-4,45.4,36.4,20.7,32.1,26.2,16.0,87,67,53,29.95,29.74,19,5,19,0.00
2013-2-5,60.7,37.7,19.8,35.1,25.8,15.7,89,66,34,30.05,29.85,14,3,14,0.00
2013-2-6,63.9,47.4,27.5,48.0,36.0,20.8,83,66,43,30.05,29.80,15,6,15,0.00
2013-2-7,53.1,45.1,32.0,46.1,38.9,26.6,94,79,59,30.18,29.81,17,6,17,0.46
2013-2-8,47.2,35.0,29.3,33.6,28.5,25.1,89,78,56,30.29,30.13,12,4,12,0.00
2013-2-9,54.4,39.9,29.9,41.2,33.6,26.8,90,79,58,30.14,29.66,18,7,18,0.00
2013-2-10,50.6,43.7,37.1,44.7,34.7,25.3,95,72,51,29.90,29.42,28,12,28,0.07
2013-2-11,48.4,36.0,26.8,27.8,23.5,18.3,76,62,37,30.13,29.90,17,6,17,0.00
2013-2-12,46.1,32.1,20.7,31.0,22.9,14.9,85,70,46,30.14,29.91,5,1,5,0.00
2013-2-13,57.8,38.2,22.7,30.7,24.4,17.5,85,61,30,29.92,29.77,20,4,20,0.00
2013-2-14,50.0,40.1,27.2,34.9,27.3,20.1,81,61,38,30.16,29.80,17,5,17,0.00
2013-2-15,40.3,30.2,19.1,27.7,18.4,10.8,89,63,38,30.35,30.16,21,6,21,0.00
2013-2-16,40.3,31.3,20.3,28.5,21.7,16.4,87,69,45,30.27,29.99,13,5,13,0.03
2013-2-17,62.3,42.9,23.8,36.6,27.9,16.0,78,57,37,29.99,29.59,19,6,19,0.01
2013-2-18,55.8,42.9,24.5,45.5,30.3,15.8,73,61,47,30.05,29.46,24,10,24,0.00
2013-2-19,40.5,27.7,20.2,18.3,10.4,1.6,79,51,22,30.29,30.05,20,5,20,0.00
2013-2-20,28.8,22.7,16.2,14.3,9.1,4.2,63,56,46,30.31,30.09,16,6,16,0.00
2013-2-21,27.4,24.3,20.5,25.4,20.3,14.0,92,85,63,30.12,29.70,20,6,20,0.00
2013-2-22,30.8,21.3,12.6,21.9,16.0,7.4,91,80,62,30.03,29.75,0,0,0,0.24
2013-2-23,42.1,19.2,2.2,27.1,12.8,-2.0,86,77,51,30.03,29.88,9,2,9,0.02
2013-2-24,44.6,30.7,13.3,30.5,22.5,9.6,88,73,53,29.96,29.83,12,4,12,0.00
2013-2-25,36.7,34.1,30.2,32.0,28.3,24.5,93,79,68,29.91,29.67,21,9,21,0.04
2013-2-26,34.7,32.6,31.0,31.1,30.1,28.6,94,91,84,29.84,29.62,22,9,22,0.11
2013-2-27,41.6,33.3,28.4,29.6,27.2,24.6,93,79,59,30.04,29.82,19,8,19,0.39
2013-2-28,34.2,31.9,29.7,27.3,25.7,23.7,83,78,72,30.17,30.03,16,6,16,0.01
2013-3-1,32.4,28.5,26.5,23.9,20.9,19.1,79,73,65,30.27,30.15,16,6,16,0.01
2013-3-2,43.9,29.5,23.8,26.1,20.3,16.8,77,69,48,30.31,30.10,16,4,16,0.00
2013-3-3,46.1,35.9,25.9,32.0,27.0,20.3,81,70,56,30.10,29.65,12,6,12,0.00
2013-3-4,52.9,42.0,34.6,38.4,33.1,28.8,82,71,57,29.95,29.60,19,6,19,0.00
2013-3-5,40.0,33.3,27.4,32.4,21.4,16.6,84,62,48,30.32,29.95,27,10,27,0.00
2013-3-6,46.4,30.4,19.3,28.4,21.4,14.3,83,70,46,30.38,30.20,12,4,12,0.00
2013-3-7,55.4,38.3,25.0,36.7,28.2,20.3,83,68,48,30.21,30.04,14,6,14,0.00
2013-3-8,63.7,50.0,36.4,48.7,39.5,29.2,78,68,51,30.12,29.88,19,8,19,0.00
2013-3-9,54.9,51.6,47.2,53.5,46.9,41.1,95,85,64,29.88,29.54,20,6,20,1.29
2013-3-10,50.4,36.3,26.6,49.0,33.9,22.2,95,91,83,29.90,29.51,23,8,23,0.05
2013-3-11,43.0,29.7,23.4,24.8,21.3,18.5,84,72,40,29.97,29.85,18,7,18,0.00
2013-3-12,49.1,37.6,29.3,30.6,24.9,20.3,85,62,37,30.30,29.96,25,7,25,0.00
2013-3-13,54.7,33.6,18.7,28.4,21.8,14.5,87,65,32,30.43,30.23,10,2,10,0.00
2013-3-14,71.3,49.5,31.1,44.0,34.2,24.0,76,58,34,30.23,30.00,16,4,16,0.00
2013-3-15,85.5,58.0,34.0,49.2,38.9,28.8,86,56,20,30.04,29.62,17,5,17,0.00
2013-3-16,58.7,42.8,34.9,44.1,34.9,27.5,87,74,57,30.01,29.69,27,12,27,0.00
2013-3-17,39.1,34.6,32.0,33.5,30.4,27.0,93,85,74,30.02,29.71,19,8,20,0.11
2013-3-18,55.6,42.7,33.5,37.5,28.7,18.1,93,63,28,30.02,29.71,24,7,24,0.00
2013-3-19,41.9,33.6,23.6,38.0,26.9,14.7,92,77,53,30.21,30.01,8,2,8,0.21
2013-3-20,43.0,32.9,24.1,33.1,17.8,11.8,92,56,31,30.36,30.06,27,6,27,0.01
2013-3-21,34.9,29.5,24.1,27.2,21.1,12.6,92,71,54,30.06,29.84,18,7,18,0.00
2013-3-22,34.9,31.8,28.8,32.5,29.4,26.8,93,91,87,29.96,29.88,10,4,10,0.03
2013-3-23,37.6,33.4,30.2,31.5,30.2,28.5,94,88,73,29.99,29.83,16,6,16,0.02
2013-3-24,32.0,28.8,23.9,28.7,24.5,17.3,95,84,70,30.06,29.83,17,8,17,0.09
2013-3-25,35.5,29.1,22.7,25.7,22.1,16.4,85,75,64,30.30,30.05,20,7,20,0.11
2013-3-26,38.9,29.1,15.3,26.6,20.4,11.5,87,71,55,30.37,30.23,8,3,8,0.16
2013-3-27,51.5,38.7,25.6,37.3,28.8,20.0,80,68,52,30.24,30.11,15,5,15,0.00
2013-3-28,66.8,48.6,29.5,43.5,36.2,25.6,88,64,39,30.16,30.06,10,3,10,0.00
2013-3-29,71.1,56.7,41.9,51.0,43.4,37.3,85,64,35,30.16,30.02,15,4,15,0.04
2013-3-30,74.3,60.3,51.3,57.4,50.7,42.7,92,72,46,30.02,29.82,12,4,12,0.13
2013-3-31,65.3,55.2,42.1,47.8,40.1,29.8,88,60,31,29.96,29.90,19,5,19,0.00
2013-4-1,49.0,41.6,33.7,34.8,24.4,17.3,80,52,32,30.25,29.95,28,10,28,0.00
2013-4-2,54.7,39.8,26.3,29.1,22.8,16.2,74,52,32,30.28,30.18,12,4,12,0.00
2013-4-3,52.2,41.2,27.7,30.5,26.7,19.9,79,58,40,30.30,30.18,13,3,13,0.00
2013-4-4,65.0,45.9,27.9,38.8,30.7,21.3,86,59,32,30.19,30.01,12,2,12,0.00
2013-4-5,73.3,54.4,32.4,48.9,39.3,28.3,91,60,34,30.13,29.78,21,6,21,0.00
2013-4-6,77.0,63.1,49.3,52.6,45.4,38.3,72,54,31,29.79,29.65,24,10,24,0.00
2013-4-7,78.1,58.5,42.1,58.0,48.1,37.9,91,71,39,29.82,29.61,21,5,21,0.03
2013-4-8,77.9,63.8,54.0,66.0,57.9,50.6,94,82,64,29.68,29.62,15,5,15,0.00
2013-4-9,75.6,64.5,43.2,65.4,58.5,39.4,90,81,66,29.81,29.56,20,7,20,0.01
2013-4-10,43.0,38.6,34.7,41.4,36.3,32.6,94,92,88,29.92,29.69,19,8,19,0.76
2013-4-11,45.4,37.5,32.9,32.9,29.8,27.3,93,74,56,29.82,29.68,22,9,22,0.00
2013-4-12,55.4,41.8,31.0,36.9,30.7,26.5,84,66,46,29.99,29.75,19,7,19,0.00
2013-4-13,69.1,51.8,30.6,50.8,40.5,27.8,91,68,45,30.01,29.62,15,4,15,0.00
2013-4-14,72.0,61.4,53.8,55.4,46.8,31.8,75,59,39,29.72,29.44,26,11,26,0.00
2013-4-15,54.4,48.5,43.4,42.1,34.1,29.3,88,59,43,29.96,29.70,19,6,19,0.06
2013-4-16,47.7,44.4,40.7,37.4,33.2,30.6,77,65,53,30.10,29.95,20,10,20,0.01
2013-4-17,48.8,46.5,44.3,47.0,43.3,37.4,95,89,74,30.03,29.59,17,6,17,0.74
2013-4-18,44.1,39.0,36.0,42.2,34.3,25.9,94,83,69,29.93,29.56,25,10,25,0.15
2013-4-19,55.4,42.4,31.5,33.9,28.3,23.7,82,60,36,30.06,29.89,23,9,23,0.00
2013-4-20,59.6,45.6,26.6,39.2,32.1,22.0,86,61,44,30.18,30.04,17,6,17,0.00
2013-4-21,72.2,56.7,42.8,52.9,43.1,34.8,78,61,45,30.14,30.03,21,7,21,0.00
2013-4-22,64.8,52.6,40.5,54.2,44.7,37.4,92,75,53,30.07,29.86,17,5,17,0.10
2013-4-23,40.3,35.8,32.6,37.4,32.0,29.7,92,86,72,30.16,30.00,26,9,26,0.49
2013-4-24,60.1,43.3,25.9,38.4,30.3,21.7,88,63,36,30.22,30.11,14,4,14,0.00
2013-4-25,72.2,53.8,29.7,49.2,38.8,26.0,90,60,33,30.25,30.07,15,5,15,0.00
2013-4-26,61.6,51.1,46.6,54.2,46.9,37.4,94,86,65,30.16,30.07,19,6,19,0.35
2013-4-27,61.2,52.0,45.7,52.2,48.2,43.0,94,87,70,30.14,29.97,10,4,10,0.13
2013-4-28,79.4,67.3,43.6,63.8,57.2,42.2,95,71,51,29.95,29.72,14,7,14,0.00
2013-4-29,87.1,70.6,50.2,70.4,59.9,47.6,94,71,46,29.77,29.57,19,7,19,0.00
2013-4-30,86.4,73.5,62.8,66.6,58.6,53.6,76,61,47,29.76,29.59,24,11,24,0.00
2013-5-1,76.9,60.1,41.2,59.7,48.7,35.6,84,67,51,30.19,29.75,30,9,30,0.00
2013-5-2,41.6,38.0,34.2,36.7,33.1,29.8,92,83,66,30.39,30.18,28,11,28,0.86
2013-5-3,50.6,42.4,35.8,35.7,32.6,29.3,88,69,49,30.29,29.90,23,8,23,0.04
2013-5-4,49.3,42.2,36.4,43.8,39.1,33.9,93,89,79,30.02,29.82,19,8,19,0.17
2013-5-5,56.2,48.9,44.5,49.0,45.3,42.4,94,87,75,30.10,30.01,12,5,12,0.01
2013-5-6,72.0,58.1,47.9,57.4,50.7,44.2,92,78,56,30.08,29.98,12,4,12,0.00
2013-5-7,78.7,61.9,40.9,62.9,51.6,39.3,95,72,45,30.05,29.92,10,2,10,0.00
2013-5-8,77.4,65.3,55.8,65.8,58.8,50.1,93,80,60,29.96,29.83,17,5,17,0.27
2013-5-9,75.4,65.0,56.0,63.4,58.1,53.6,94,79,59,29.93,29.81,12,3,12,0.04
2013-5-10,58.5,56.3,54.5,55.6,53.7,52.0,92,91,89,29.94,29.91,8,2,8,0.00
2013-5-13,82.4,70.9,46.4,59.8,54.1,41.3,83,57,40,30.08,29.89,14,5,14,0.00
2013-5-14,93.1,76.8,60.1,60.1,54.4,49.0,81,50,25,29.89,29.75,23,8,23,0.00
2013-5-15,89.5,75.6,63.5,69.2,61.3,54.3,89,62,45,29.86,29.77,17,7,17,0.00
2013-5-16,85.3,71.9,59.0,67.7,61.7,56.2,93,72,48,29.86,29.76,10,3,10,0.00
2013-5-17,83.2,67.3,59.4,64.2,59.9,56.5,92,78,52,29.88,29.81,6,2,6,0.00
2013-5-18,86.0,74.2,59.6,75.0,67.0,56.3,90,79,67,29.88,29.67,16,4,16,0.00
2013-5-19,84.2,69.3,58.7,73.4,63.3,54.8,93,82,58,29.82,29.49,26,6,26,0.59
2013-5-20,83.5,70.7,55.6,69.8,58.8,52.7,93,69,40,29.72,29.59,11,4,11,0.00
2013-5-21,75.8,66.1,54.2,58.0,52.6,48.4,84,63,45,29.77,29.66,16,4,16,0.00
2013-5-22,71.3,61.2,53.3,54.6,50.7,47.6,84,69,53,29.93,29.72,14,4,14,0.00
2013-5-23,71.8,60.5,50.8,57.5,51.8,45.1,89,74,59,30.17,29.93,14,4,14,0.00
2013-5-24,77.8,64.3,48.1,58.6,52.6,45.5,92,68,46,30.24,30.05,16,4,16,0.00
2013-5-25,85.0,73.6,62.8,69.4,62.5,54.4,85,69,51,30.11,29.94,15,6,15,0.00
2013-5-26,87.5,76.3,67.3,72.5,67.9,63.2,90,76,57,30.00,29.83,15,7,15,0.00
2013-5-27,81.9,72.0,62.3,74.3,66.4,60.7,95,83,70,29.87,29.60,16,7,16,2.24
2013-5-28,85.0,76.2,69.7,75.8,69.6,65.8,88,80,72,29.75,29.61,14,6,14,0.00
2013-5-29,83.7,75.1,66.8,73.2,67.4,61.5,84,77,67,29.74,29.56,19,8,19,0.01
2013-5-30,84.6,67.3,61.6,70.7,62.7,58.9,94,86,59,29.70,29.52,20,4,20,0.71
2013-5-31,92.0,71.2,61.0,75.2,66.2,57.9,94,85,57,29.72,29.60,11,3,11,1.01
2013-6-1,71.1,66.2,59.4,65.6,55.3,49.2,93,69,57,29.97,29.67,18,7,18,0.00
2013-6-2,75.6,60.7,50.4,53.9,49.9,46.0,86,69,45,30.08,29.97,10,4,11,0.00
2013-6-3,77.8,64.5,47.5,61.5,53.9,44.4,90,70,52,30.02,29.82,12,4,12,0.00
2013-6-4,81.7,70.0,62.8,70.6,62.6,57.1,90,78,60,29.93,29.80,10,4,10,0.00
2013-6-5,70.7,65.0,59.4,66.1,61.2,56.5,93,88,75,29.96,29.88,13,3,13,0.31
2013-6-6,79.9,67.0,54.4,58.2,55.2,50.9,94,68,44,29.96,29.88,11,3,11,0.00
2013-6-7,83.0,66.7,54.2,60.5,53.9,49.7,91,66,39,29.99,29.87,11,3,11,0.00
2013-6-8,83.7,68.7,53.6,67.1,58.4,49.5,92,71,50,29.90,29.70,16,6,16,0.70
2013-6-9,83.2,71.7,60.7,65.1,58.4,51.7,94,67,35,29.83,29.74,19,5,19,0.17
2013-6-10,92.2,75.3,55.1,69.9,62.7,52.7,94,68,45,29.87,29.76,9,2,9,0.00
2013-6-11,97.2,82.3,69.1,73.0,68.0,63.2,91,65,35,29.85,29.73,18,6,18,0.00
2013-6-12,96.8,85.0,74.5,76.0,69.9,59.5,82,62,43,29.93,29.71,18,7,18,0.00
2013-6-13,89.8,75.1,59.4,68.6,60.9,53.1,83,63,46,30.04,29.92,17,4,17,0.00
2013-6-14,96.1,80.6,64.1,78.5,69.9,59.1,90,72,52,29.97,29.80,14,5,14,0.00
2013-6-15,92.5,78.5,67.7,77.2,70.8,64.7,91,78,49,29.95,29.83,22,3,22,0.70
2013-6-16,89.5,76.4,66.2,76.2,70.3,63.8,94,82,62,29.94,29.86,10,2,10,0.00
2013-6-17,94.9,75.0,67.5,74.0,68.6,63.7,94,82,48,29.98,29.85,10,3,10,0.29
2013-6-18,90.0,73.7,62.8,76.7,66.0,60.5,94,78,50,30.02,29.94,20,3,20,0.07
2013-6-19,91.8,76.2,62.8,74.4,66.1,60.5,93,73,42,30.00,29.89,11,3,11,0.00
2013-6-20,91.6,80.3,68.4,79.0,71.3,63.2,88,75,60,29.95,29.82,16,6,16,0.00
2013-6-21,93.2,82.8,75.1,78.8,73.1,68.1,87,74,54,29.92,29.83,18,6,18,0.00
2013-6-22,94.3,83.6,73.4,78.0,71.2,67.3,83,67,52,29.94,29.80,20,6,20,0.00
2013-6-23,93.6,81.2,75.6,77.6,71.6,68.8,84,73,52,29.91,29.71,21,6,21,0.03
2013-6-24,92.9,82.7,75.2,76.1,70.8,67.5,82,68,53,29.90,29.76,17,7,17,0.00
2013-6-25,90.4,80.8,73.1,78.4,72.0,68.1,92,75,61,29.85,29.67,20,7,20,0.12
2013-6-26,107.3,86.4,72.5,78.9,71.3,65.7,89,64,31,29.87,29.69,12,4,12,0.00
2013-6-27,93.8,79.2,71.6,79.9,71.5,66.1,92,78,60,29.98,29.79,15,3,15,0.41
2013-6-28,92.3,79.1,68.0,74.2,65.3,55.8,93,66,35,29.95,29.86,13,4,13,0.00
2013-6-29,85.3,76.4,66.4,65.2,58.4,52.4,76,56,35,29.89,29.81,19,7,19,0.00
2013-6-30,82.8,73.1,61.0,61.1,57.2,53.5,79,59,42,30.02,29.89,15,5,15,0.00
2013-7-1,86.0,72.1,58.0,61.7,55.1,50.5,83,58,34,30.10,30.01,17,4,17,0.00
2013-7-2,91.1,72.5,58.0,61.8,56.6,51.0,86,60,33,30.11,30.01,12,2,12,0.00
2013-7-3,89.5,72.2,55.8,67.8,57.6,51.3,88,64,33,30.06,29.94,12,2,12,0.09
2013-7-4,93.8,76.0,57.6,66.8,59.8,53.1,87,60,36,30.01,29.90,9,2,9,0.00
2013-7-5,92.5,79.4,63.4,69.6,62.7,56.9,82,59,38,29.95,29.84,11,4,13,0.00
2013-7-6,88.6,77.2,68.4,70.4,65.2,60.8,80,67,53,29.91,29.84,12,5,12,0.00
2013-7-7,95.9,82.3,70.9,76.1,68.6,63.5,82,64,48,29.93,29.86,17,6,17,0.03
2013-7-8,99.4,86.2,73.8,77.5,70.0,65.9,85,60,41,29.99,29.91,15,5,15,0.01
2013-7-9,103.5,88.9,77.6,79.9,72.4,68.1,78,60,39,29.98,29.80,17,6,17,0.00
2013-7-10,95.8,84.5,72.4,75.2,67.3,60.5,78,58,38,30.01,29.83,18,5,18,0.00
2013-7-11,94.7,79.9,65.9,69.0,63.4,58.7,83,59,37,30.07,29.93,12,4,12,0.00
2013-7-12,95.8,82.0,68.6,74.1,66.7,58.1,76,61,48,29.99,29.90,10,4,10,0.00
2013-7-13,93.1,82.1,72.0,76.2,67.9,60.0,68,62,52,29.98,29.88,8,3,8,0.00
2013-7-14,91.8,79.8,68.0,70.2,63.8,58.5,90,60,38,30.07,29.93,15,4,15,0.05
2013-7-15,92.9,79.9,64.4,72.4,65.5,58.7,86,63,43,30.14,30.05,15,3,15,0.00
2013-7-16,99.9,82.6,68.4,73.6,67.9,64.1,89,64,38,30.22,30.14,10,2,10,0.00
2013-7-17,99.2,83.2,68.2,75.6,68.8,64.0,89,64,39,30.28,30.14,11,2,11,0.00
2013-7-18,98.5,84.4,67.1,74.3,67.7,62.6,87,60,36,30.16,29.95,16,3,16,0.00
2013-7-19,102.2,85.6,71.1,73.1,68.4,63.6,91,59,34,29.98,29.82,14,4,14,0.57
2013-7-20,91.1,76.8,70.0,76.3,71.2,67.1,92,84,53,29.90,29.81,17,3,17,0.10
2013-7-21,96.1,78.2,69.3,76.2,70.8,66.5,93,79,51,29.90,29.77,9,2,9,0.00
2013-7-22,99.7,82.0,69.1,79.7,71.6,66.3,93,73,43,29.82,29.75,12,3,12,0.00
2013-7-23,88.7,77.2,69.5,74.9,69.8,65.4,93,79,55,29.93,29.78,14,4,14,0.00
2013-7-24,87.7,76.4,64.8,65.4,61.4,58.2,84,62,39,30.03,29.90,16,4,16,0.00
2013-7-25,84.1,73.6,63.7,71.8,66.4,59.1,91,79,59,30.06,29.97,6,2,6,0.11
2013-7-26,89.5,76.5,67.3,73.3,65.3,54.1,93,71,42,30.04,29.95,22,4,22,0.04
2013-7-27,76.3,66.1,58.7,64.4,57.5,53.1,89,74,51,30.09,29.96,11,2,11,0.01
2013-7-28,79.6,66.9,58.9,61.6,58.4,55.6,92,75,49,30.03,29.98,7,1,7,0.02
2013-7-29,70.2,65.9,61.6,68.7,63.7,59.3,95,93,87,30.03,29.90,14,4,14,1.22
2013-7-30,82.1,73.6,68.2,74.0,70.3,66.7,96,90,73,30.05,29.93,10,2,10,0.00
2013-7-31,89.8,76.0,65.9,74.5,68.1,63.7,95,78,54,30.10,30.01,14,2,14,0.00
2013-8-1,91.3,77.9,63.7,76.1,68.4,61.1,93,74,53,30.08,29.90,8,2,8,0.00
2013-8-2,90.2,76.5,64.1,79.7,71.0,61.4,93,84,68,29.98,29.81,18,4,18,0.65
2013-8-3,85.3,76.9,71.6,75.6,71.4,67.6,92,83,68,30.08,29.88,12,4,12,0.00
2013-8-4,78.7,72.0,67.3,73.6,68.8,64.9,94,90,79,30.10,29.98,10,3,10,0.35
2013-8-5,85.0,76.6,68.9,76.2,72.0,67.2,94,86,73,30.01,29.80,8,2,8,0.00
2013-8-6,90.4,80.1,70.2,80.3,74.4,68.4,95,84,67,29.85,29.75,10,2,10,0.39
2013-8-7,90.4,78.9,70.2,79.9,72.8,64.7,95,82,59,29.93,29.75,13,2,13,0.79
2013-8-8,74.9,70.8,68.4,70.3,66.3,63.5,90,86,82,29.98,29.85,12,3,12,0.05
2013-8-9,79.6,72.2,63.2,69.6,66.5,59.9,90,82,67,30.09,29.96,7,2,7,0.00
2013-8-10,86.0,73.2,61.2,71.9,64.7,58.6,93,76,52,30.16,30.04,9,2,9,0.00
2013-8-11,88.9,75.1,60.5,75.3,66.9,57.6,91,77,58,30.10,29.97,8,2,8,0.00
2013-8-12,86.6,75.1,65.9,74.7,68.3,62.8,94,80,62,30.01,29.93,22,3,22,0.87
2013-8-13,81.9,72.9,64.1,67.1,64.2,59.5,89,75,51,30.09,29.98,12,3,12,0.00
2013-8-14,82.6,71.1,59.9,70.0,62.7,56.4,90,76,56,30.15,30.03,7,2,7,0.00
2013-8-15,74.9,67.8,62.8,66.6,61.3,57.3,88,80,66,30.07,29.96,14,4,14,0.07
2013-8-16,79.9,69.7,61.9,65.5,60.5,56.7,83,73,54,30.11,30.01,11,3,11,0.00
2013-8-17,80.5,67.1,54.4,66.1,57.6,50.9,90,73,51,30.16,30.06,12,2,12,0.00
2013-8-18,83.2,69.0,54.2,69.3,60.4,50.7,90,75,58,30.13,30.01,9,2,9,0.00
2013-8-19,86.2,73.5,60.8,72.5,65.1,57.3,88,76,60,30.07,29.95,10,3,10,0.00
2013-8-20,89.3,76.8,66.6,75.0,67.7,62.6,88,75,56,30.02,29.94,12,4,12,0.00
2013-8-21,91.3,78.5,68.0,76.4,69.0,63.0,87,74,54,30.03,29.95,10,4,10,0.00
2013-8-22,92.0,77.8,67.1,78.2,69.9,63.1,88,78,57,30.07,29.97,6,2,6,0.00
2013-8-23,92.5,79.8,67.0,77.8,69.7,62.7,88,73,54,30.05,29.96,10,2,10,0.00
2013-8-24,92.5,81.1,70.6,78.0,71.5,65.4,85,73,56,30.08,29.99,12,4,12,0.00
2013-8-25,93.6,80.9,70.2,78.9,71.5,65.4,86,74,53,30.16,30.06,12,4,12,0.00
2013-8-26,94.7,81.6,68.0,77.9,70.8,63.7,86,71,50,30.11,30.01,14,5,14,0.00
2013-8-27,94.9,81.3,70.2,72.9,68.1,64.4,85,66,42,30.03,29.94,16,5,16,0.00
2013-8-28,94.0,80.2,69.1,74.9,67.5,60.5,76,66,52,30.02,29.96,12,3,12,0.00
2013-8-29,95.4,82.2,72.7,77.6,69.3,63.2,72,65,52,29.99,29.90,9,3,9,0.00
2013-8-30,99.4,84.3,71.6,76.7,68.6,61.4,71,61,40,29.93,29.79,11,3,11,0.00
2013-8-31,93.2,81.1,71.8,77.2,68.7,61.6,71,66,53,29.85,29.76,10,2,10,0.03
2013-9-1,88.9,76.8,64.1,72.0,63.4,52.0,71,64,53,29.95,29.70,17,4,17,0.19
2013-9-2,82.8,70.6,59.4,63.9,56.2,47.2,68,61,48,30.04,29.94,13,3,13,0.00
2013-9-3,87.5,69.8,53.6,65.4,53.7,43.1,68,58,39,30.08,29.98,6,1,6,0.00
2013-9-4,91.6,72.5,55.6,68.0,55.7,44.4,67,57,38,30.14,30.01,9,1,9,0.00
2013-9-5,92.7,75.3,59.9,68.8,58.2,47.7,65,56,39,30.16,30.06,9,2,9,0.00
2013-9-6,94.0,79.0,66.6,71.2,62.0,52.7,63,56,46,30.09,29.93,13,3,13,0.00
2013-9-7,99.4,82.9,68.8,72.9,65.1,55.6,64,56,40,29.96,29.85,12,4,12,0.00
2013-9-8,102.4,85.9,70.2,72.8,66.5,57.4,65,54,33,29.87,29.78,12,4,12,0.00
2013-9-9,97.7,82.7,72.0,69.3,63.3,58.8,67,54,34,29.90,29.83,19,6,19,0.00
2013-9-10,97.6,81.1,65.9,70.7,63.3,55.0,68,56,37,30.03,29.90,14,5,14,0.00
2013-9-11,97.2,80.6,65.7,69.9,63.1,55.0,69,57,36,30.09,29.98,13,3,13,0.00
2013-9-12,85.9,76.3,67.3,67.9,61.2,52.0,68,60,47,30.13,30.03,17,4,17,0.03
2013-9-13,79.2,67.0,53.5,55.3,49.0,41.4,64,54,37,30.15,30.02,13,3,13,0.00
2013-9-14,84.1,67.3,50.2,58.0,50.0,38.4,65,55,37,30.06,29.89,11,4,11,0.00
2013-9-15,89.5,72.6,63.0,68.0,57.3,49.8,65,59,47,30.12,29.88,19,6,19,0.23
2013-9-16,63.0,61.0,59.9,49.8,46.9,41.9,64,60,51,30.21,30.09,13,6,13,0.69
2013-9-17,77.6,67.8,61.2,59.2,43.7,32.1,54,42,28,30.14,29.90,10,4,10,0.79
2013-9-18,90.5,77.2,66.1,72.3,48.8,8.6,62,42,8,29.93,29.75,20,6,20,0.00
2013-9-19,93.1,77.5,68.0,73.1,52.0,9.6,63,44,10,29.93,29.69,20,7,20,0.45
2013-9-20,73.1,64.0,52.0,52.0,46.7,28.4,66,54,25,30.05,29.91,16,4,16,0.00
2013-9-21,77.8,62.0,47.7,58.8,42.8,18.6,64,50,30,30.01,29.86,8,2,8,0.00
2013-9-22,78.1,64.3,52.6,60.1,45.7,24.1,65,52,33,29.93,29.80,10,3,10,0.00
2013-9-23,78.8,65.4,53.6,58.5,47.3,29.9,64,52,40,29.86,29.71,17,5,17,0.00
2013-9-24,72.0,65.1,57.2,59.0,48.5,33.0,64,56,33,29.84,29.71,12,4,12,0.00
2013-9-25,81.0,66.6,51.7,64.4,37.0,-0.9,61,37,1,29.87,29.75,8,2,8,0.00
2013-9-26,88.4,73.1,59.8,64.0,43.7,10.9,59,39,15,29.84,29.76,17,5,17,0.00
2013-9-27,88.4,75.4,65.2,67.1,55.2,35.9,61,50,34,29.91,29.79,17,6,17,0.00
2013-9-28,73.4,64.3,47.9,58.1,35.6,-4.4,61,39,1,30.06,29.74,17,4,17,0.22
2013-9-29,75.2,58.1,41.8,54.4,27.9,-9.8,58,35,1,30.07,29.91,6,2,8,0.00
2013-9-30,79.4,60.5,42.1,57.2,28.1,-20.8,57,32,1,29.91,29.77,13,3,13,0.00
2013-10-1,83.7,66.6,51.5,64.2,26.5,-3.3,53,23,1,29.92,29.80,12,3,12,0.00
2013-10-2,84.2,69.3,56.2,62.7,19.9,0.4,49,12,1,29.96,29.83,10,3,10,0.00
2013-10-3,85.1,71.9,62.6,61.6,19.0,5.4,46,9,1,29.85,29.68,22,6,22,0.10
2013-10-4,89.3,75.2,61.2,69.2,30.5,6.3,55,20,1,29.92,29.67,20,8,20,0.24
2013-10-5,72.2,53.9,46.3,52.1,37.4,28.1,60,54,44,30.01,29.88,15,6,15,0.00
2013-10-6,63.5,52.0,42.1,46.0,30.7,-17.0,60,46,1,29.99,29.84,17,6,17,0.00
2013-10-7,75.4,56.2,40.3,48.9,31.0,-26.8,58,40,4,30.11,29.98,8,2,8,0.00
2013-10-8,76.1,59.9,45.5,51.2,27.3,-8.1,55,32,1,30.04,29.95,17,5,17,0.00
2013-10-9,77.9,61.7,46.6,55.4,29.3,-7.0,56,32,1,30.03,29.94,13,4,13,0.00
2013-10-10,80.3,63.6,48.2,60.2,28.1,-5.8,57,29,1,30.01,29.80,14,4,14,0.00
2013-10-11,80.5,67.3,58.3,61.0,22.8,-23.0,55,18,1,29.85,29.70,16,7,17,0.00
2013-10-12,70.4,57.6,43.4,45.8,30.5,-16.9,57,38,1,30.21,29.85,14,3,14,0.00
2013-10-13,72.4,55.0,37.1,44.1,22.8,-40.2,57,31,1,30.34,30.21,18,4,18,0.00
2013-10-14,70.4,59.2,52.9,52.9,25.3,2.3,58,32,1,30.22,29.78,14,6,14,0.43
2013-10-15,61.4,54.1,45.7,43.0,27.0,-1.3,60,40,1,30.06,29.83,16,7,17,0.05
2013-10-16,59.6,51.2,42.1,41.8,32.9,-1.9,60,51,17,30.08,29.95,14,4,14,0.00
2013-10-17,68.0,52.1,35.1,47.5,24.4,-37.7,59,37,1,30.00,29.87,13,4,13,0.00
2013-10-18,45.9,39.0,32.0,21.9,-9.9,-18.4,42,6,1,30.11,30.00,10,2,10,0.27
2013-10-19,64.4,45.5,29.9,42.0,9.8,-20.1,60,24,1,30.06,29.84,13,3,13,0.01
2013-10-20,72.2,55.0,42.1,48.0,24.1,-10.6,59,33,1,29.92,29.74,13,4,13,0.00
2013-10-21,57.6,48.4,40.0,40.7,30.4,4.2,61,50,22,30.09,29.91,15,4,15,0.00
2013-10-22,62.3,50.6,39.2,44.8,26.4,-34.9,60,42,1,30.08,29.88,17,6,17,0.00
2013-10-23,56.2,43.5,29.2,40.6,11.4,-20.7,59,30,1,30.13,29.98,8,2,8,0.00
2013-10-24,52.9,41.8,29.3,32.4,11.7,-27.4,61,33,1,30.38,30.12,13,3,13,0.00
2013-10-25,58.7,41.9,24.5,35.0,13.7,-24.4,61,34,1,30.40,30.09,14,4,14,0.00
2013-10-26,61.2,48.6,36.2,41.2,20.0,-12.2,62,35,1,30.14,30.03,14,4,14,0.00
2013-10-27,65.7,45.3,25.2,39.2,17.1,-44.2,60,35,1,30.13,29.88,12,4,12,0.00
2013-10-28,60.7,48.5,33.5,33.3,7.3,-24.0,60,19,1,30.09,29.92,9,3,9,0.00
2013-10-29,65.2,59.0,53.6,7.2,2.6,-1.6,1,1,1,30.04,29.86,11,4,11,0.60
2013-10-30,72.4,63.2,55.1,12.8,5.7,-0.4,1,1,1,29.92,29.67,15,4,15,1.03
2013-10-31,60.5,51.5,42.5,10.5,-3.1,-10.3,15,2,1,29.71,29.54,13,4,13,0.54
2013-11-1,75.6,49.6,40.1,42.1,7.7,-32.3,54,18,1,29.99,29.63,16,5,16,0.09
2013-11-2,56.9,45.4,34.2,36.1,2.5,-16.8,48,15,1,30.18,29.99,13,5,13,0.00
2013-11-3,59.4,49.0,34.2,38.8,13.0,-16.8,47,24,1,30.11,29.80,20,8,20,0.00
2013-11-4,65.3,55.8,48.6,28.3,1.7,-5.5,25,4,1,30.03,29.79,17,7,17,0.00
2013-11-5,60.1,56.2,42.8,3.2,0.4,-10.1,1,1,1,30.03,29.80,18,6,18,0.73
2013-11-6,46.4,38.8,30.8,-7.2,-13.2,-19.3,7,1,1,30.28,29.94,18,5,18,0.00
2013-11-7,78.5,42.0,30.6,50.3,-0.1,-19.5,44,14,1,30.37,30.26,13,3,13,0.01
2013-11-8,68.4,51.0,30.4,37.8,15.0,-19.6,44,23,1,30.26,29.80,27,9,27,0.00
2013-11-9,68.8,51.7,34.6,39.8,15.6,-16.6,44,24,1,30.25,29.92,11,3,12,0.00
2013-11-10,59.2,49.8,32.8,35.9,13.6,-17.8,42,24,1,30.36,30.15,11,3,11,0.00
2013-11-11,59.4,44.9,27.9,4.2,-6.9,-21.7,35,4,1,30.61,30.10,29,8,29,0.00
2013-11-12,38.0,25.9,16.4,14.3,-3.3,-30.7,47,29,1,30.81,30.60,21,4,21,0.00
2013-11-13,50.9,35.4,17.6,23.3,5.0,-29.9,47,30,1,30.60,30.09,18,8,18,0.00
2013-11-14,60.3,45.7,37.6,31.9,21.6,7.2,47,39,25,30.10,29.88,17,9,17,0.00
2013-11-15,61.9,49.7,34.6,37.4,7.6,-16.8,40,17,1,29.91,29.65,14,6,14,0.00
2013-11-16,74.0,63.7,51.8,43.3,7.6,-3.1,34,3,1,29.65,29.34,32,13,32,0.01
2013-11-17,65.5,58.3,43.7,37.4,17.8,-27.9,42,21,1,30.06,29.30,27,12,27,0.00
2013-11-18,62.1,44.9,31.3,32.8,8.5,-18.9,44,22,1,30.25,30.04,7,2,7,0.00
2013-11-19,64.1,50.0,34.6,30.1,16.4,-16.6,41,27,1,30.18,29.88,18,8,18,0.00
2013-11-20,56.9,48.7,41.4,31.4,6.9,-11.1,43,17,1,29.90,29.78,17,6,17,0.23
2013-11-21,49.0,38.6,27.4,-5.2,-13.3,-22.1,1,1,1,30.42,29.89,24,8,24,0.05
2013-11-22,27.9,25.2,22.0,-21.8,-23.8,-26.5,1,1,1,30.58,30.40,19,7,19,0.01
2013-11-23,30.1,24.0,16.4,9.0,-13.6,-30.7,43,17,1,30.73,30.53,24,7,24,0.00
2013-11-24,28.6,21.8,12.1,7.8,-11.5,-34.2,41,22,1,30.68,30.25,11,4,11,0.00
2013-11-25,44.5,33.0,25.6,20.8,2.3,-23.7,40,28,1,30.25,30.11,13,4,13,0.00
2013-11-26,41.0,30.0,20.2,17.6,-5.9,-23.7,44,21,1,30.37,30.12,27,7,27,0.00
2013-11-27,38.7,26.4,13.5,14.1,-3.5,-33.0,44,28,1,30.38,30.09,14,4,14,0.00
2013-11-28,43.7,31.8,22.7,20.8,-1.2,-25.8,41,25,1,30.42,30.08,13,4,13,0.00
2013-11-29,56.3,36.2,20.3,29.7,-0.0,-27.7,42,20,1,30.42,30.15,13,4,13,0.00
2013-11-30,58.1,41.7,30.2,31.5,-2.8,-19.8,37,11,1,30.15,30.02,10,3,10,0.00
2013-12-1,59.4,40.6,26.3,32.7,-5.3,-22.9,37,9,1,30.07,29.81,5,1,6,0.00
2013-12-2,58.9,44.8,35.6,2.3,-8.5,-15.7,10,1,1,29.81,29.55,13,6,13,0.00
2013-12-3,62.5,47.4,40.0,20.7,-5.9,-12.2,21,3,1,29.57,29.48,13,5,13,0.00
2013-12-4,40.0,31.5,21.8,-2.8,-17.1,-24.4,31,4,1,30.03,29.49,19,8,19,0.04
2013-12-5,21.8,18.8,15.5,-0.3,-8.0,-28.5,41,31,1,30.34,30.02,16,8,16,0.00
2013-12-6,19.3,14.7,9.7,-0.1,-3.6,-9.3,47,44,40,30.59,30.31,22,10,22,0.00
2013-12-7,23.2,14.5,3.2,3.0,-6.7,-33.5,45,38,16,30.65,30.28,14,7,14,0.00
2013-12-8,23.4,19.8,13.1,2.4,-23.9,-33.3,45,7,1,30.28,29.92,14,4,14,0.00
2013-12-9,19.8,11.4,6.5,-0.4,-24.1,-38.6,41,17,1,30.36,30.13,10,4,12,0.00
2013-12-10,42.7,24.4,7.2,19.0,-12.4,-38.1,41,18,1,30.27,30.11,9,4,9,0.04
2013-12-11,29.2,20.8,9.4,7.4,-11.8,-29.5,46,23,1,30.56,30.16,24,6,24,0.00
2013-12-12,49.3,29.4,10.1,22.7,-3.1,-35.2,42,25,1,30.52,30.08,19,6,19,0.00
2013-12-13,38.9,34.7,26.6,-13.2,-16.4,-22.9,1,1,1,30.08,29.78,15,6,15,0.04
2013-12-14,34.2,26.0,14.9,-7.6,-22.9,-31.9,17,2,1,30.18,29.88,19,6,19,0.03
2013-12-15,56.0,34.4,14.0,30.1,-3.2,-32.6,39,18,1,30.16,29.93,11,4,11,0.00
2013-12-16,64.4,42.6,26.3,32.8,5.6,-22.9,40,21,1,30.11,29.92,16,3,16,0.00
2013-12-17,52.6,34.3,21.1,26.2,-5.4,-27.1,41,16,1,30.27,30.11,15,3,15,0.00
2013-12-18,68.4,47.5,25.7,35.8,9.6,-23.4,40,20,1,30.16,29.72,23,9,23,0.00
2013-12-19,57.8,50.1,35.6,9.0,-3.8,-15.8,18,2,1,29.72,29.59,15,6,15,0.00
2013-12-20,35.3,22.1,18.0,-15.9,-26.2,-29.4,1,1,1,29.93,29.70,24,6,24,0.00
2013-12-21,27.7,23.3,20.2,-21.8,-25.3,-27.7,1,1,1,29.87,29.59,19,6,19,0.00
2013-12-22,29.2,19.8,4.5,-21.0,-28.4,-64.3,1,1,1,30.32,29.72,12,4,12,0.00
2013-12-23,21.2,11.6,4.0,-1.8,-28.7,-64.7,38,11,1,30.56,30.31,9,3,9,0.02
2013-12-24,32.8,19.6,4.0,5.7,-26.1,-64.7,37,7,1,30.51,30.11,17,6,17,0.00
2013-12-25,44.3,31.3,20.2,9.6,-17.6,-27.9,25,3,1,30.30,30.18,11,3,11,0.18
2013-12-26,51.1,33.0,19.1,26.3,-9.9,-28.5,38,11,1,30.28,30.11,20,5,20,0.00
2013-12-27,59.8,37.7,21.1,32.3,-5.4,-27.1,40,12,1,30.28,30.12,10,3,10,0.00
2013-12-28,58.9,42.1,29.9,32.3,-1.5,-20.1,39,12,1,30.12,29.82,20,7,20,0.00
2013-12-29,37.3,19.3,8.6,3.6,-11.4,-30.4,47,27,1,30.29,29.94,24,8,24,0.00
2013-12-30,37.1,21.3,7.2,14.1,-5.6,-33.4,43,31,1,30.25,30.10,15,4,15,0.00
2013-12-31,54.9,34.7,15.3,27.9,-1.1,-31.7,42,20,1,30.27,29.97,24,6,24,0.00
2014-1-1,36.5,19.1,9.5,8.0,-27.2,-36.4,30,3,1,30.29,29.97,24,9,24,0.00
2014-1-2,19.6,11.2,2.2,-6.7,-27.0,-65.3,31,15,1,30.42,30.29,15,4,15,0.00